• Em Portugal
  • Lista de países
  • Para 7 dias
  • Temperatura da água
  • Mapas de satélite
  • Mapa do tempo
  • Widgets de tempo
  • user-avatar
    Iniciar Sessão

    Previsão horária em Witkow

    Hoje, 18 Julho, Quarta-feira

    Tempo Temperatura Precipitação Vento Pressão Humidade
    00:00 +18°C° 0,2 mm 4 m/s 740 mmHg 94%
    01:00 +18°C° 0 mm 4 m/s 740 mmHg 94%
    02:00 +17°C° 0,4 mm 5 m/s 740 mmHg 94%
    03:00 +17°C° 0,4 mm 5 m/s 740 mmHg 93%
    04:00 +17°C° 0,4 mm 6 m/s 740 mmHg 93%
    05:00 +17°C° 0,5 mm 6 m/s 740 mmHg 92%
    06:00 +17°C° 0,5 mm 6 m/s 740 mmHg 92%
    07:00 +18°C° 0,5 mm 7 m/s 740 mmHg 91%
    08:00 +18°C° 0,7 mm 7 m/s 741 mmHg 90%
    09:00 +18°C° 0,7 mm 7 m/s 741 mmHg 89%
    10:00 +18°C° 0,7 mm 7 m/s 741 mmHg 88%
    11:00 +20°C° 0,6 mm 7 m/s 741 mmHg 87%
    12:00 +20°C° 0,6 mm 6 m/s 741 mmHg 87%
    13:00 +20°C° 0,6 mm 6 m/s 742 mmHg 86%
    14:00 +21°C° 0,3 mm 6 m/s 742 mmHg 84%
    15:00 +21°C° 0,3 mm 6 m/s 742 mmHg 81%
    16:00 +22°C° 0,3 mm 5 m/s 742 mmHg 79%
    17:00 +21°C° 0,2 mm 5 m/s 742 mmHg 81%
    18:00 +21°C° 0,2 mm 4 m/s 743 mmHg 82%
    19:00 +20°C° 0,2 mm 3 m/s 743 mmHg 84%
    20:00 +20°C° 0,1 mm 3 m/s 743 mmHg 86%
    21:00 +19°C° 0,1 mm 3 m/s 743 mmHg 88%
    22:00 +19°C° 0,1 mm 3 m/s 743 mmHg 90%
    23:00 +18°C° 0 mm 3 m/s 744 mmHg 91%

    Amanhã, 19 Julho, Quinta-feira

    Tempo Temperatura Precipitação Vento Pressão Humidade
    00:00 +18°C° 0 mm 3 m/s 744 mmHg 92%
    01:00 +18°C° 0 mm 3 m/s 744 mmHg 93%
    02:00 +18°C° 0 mm 3 m/s 744 mmHg 93%
    03:00 +17°C° 0 mm 4 m/s 744 mmHg 94%
    04:00 +17°C° 0 mm 4 m/s 744 mmHg 94%
    05:00 +18°C° 0 mm 4 m/s 744 mmHg 91%
    06:00 +17°C° 0 mm 5 m/s 744 mmHg 89%
    07:00 +19°C° 0 mm 5 m/s 744 mmHg 86%
    08:00 +20°C° 0,2 mm 5 m/s 744 mmHg 83%
    09:00 +20°C° 0,2 mm 5 m/s 744 mmHg 80%
    10:00 +21°C° 0,2 mm 5 m/s 744 mmHg 77%
    11:00 +21°C° 0,3 mm 5 m/s 744 mmHg 76%
    12:00 +22°C° 0,3 mm 5 m/s 744 mmHg 75%
    13:00 +22°C° 0,3 mm 5 m/s 744 mmHg 74%
    14:00 +22°C° 0,2 mm 5 m/s 744 mmHg 73%
    15:00 +23°C° 0,2 mm 5 m/s 744 mmHg 71%
    16:00 +23°C° 0,2 mm 5 m/s 744 mmHg 70%
    17:00 +22°C° 0 mm 4 m/s 744 mmHg 73%
    18:00 +22°C° 0 mm 4 m/s 744 mmHg 76%
    19:00 +21°C° 0 mm 4 m/s 744 mmHg 78%
    20:00 +20°C° 0 mm 3 m/s 745 mmHg 83%
    21:00 +19°C° 0 mm 3 m/s 745 mmHg 87%
    22:00 +18°C° 0 mm 2 m/s 745 mmHg 92%
    23:00 +17°C° 0 mm 2 m/s 745 mmHg 92%

    Depois de amanhã, 20 Julho, Sexta-feira

    Tempo Temperatura Precipitação Vento Pressão Humidade
    00:00 +17°C° 0 mm 2 m/s 745 mmHg 92%
    01:00 +17°C° 0 mm 2 m/s 745 mmHg 93%
    02:00 +17°C° 0 mm 2 m/s 745 mmHg 92%
    03:00 +16°C° 0 mm 2 m/s 745 mmHg 92%
    04:00 +16°C° 0 mm 2 m/s 745 mmHg 92%
    05:00 +17°C° 0 mm 3 m/s 745 mmHg 87%
    06:00 +18°C° 0 mm 3 m/s 745 mmHg 83%
    07:00 +18°C° 0 mm 3 m/s 745 mmHg 78%
    08:00 +20°C° 0 mm 3 m/s 745 mmHg 70%
    09:00 +21°C° 0 mm 3 m/s 745 mmHg 63%
    10:00 +24°C° 0 mm 3 m/s 745 mmHg 56%
    11:00 +25°C° 0 mm 3 m/s 745 mmHg 52%
    12:00 +26°C° 0 mm 3 m/s 744 mmHg 48%
    13:00 +27°C° 0 mm 3 m/s 744 mmHg 44%
    14:00 +27°C° 0 mm 3 m/s 744 mmHg 43%
    15:00 +27°C° 0 mm 3 m/s 744 mmHg 41%
    16:00 +28°C° 0 mm 3 m/s 743 mmHg 40%
    17:00 +26°C° 0 mm 2 m/s 743 mmHg 46%
    18:00 +25°C° 0 mm 2 m/s 743 mmHg 51%
    19:00 +24°C° 0 mm 1 m/s 743 mmHg 57%
    20:00 +22°C° 0 mm 1 m/s 743 mmHg 61%
    21:00 +21°C° 0 mm 1 m/s 743 mmHg 65%
    22:00 +19°C° 0 mm 1 m/s 743 mmHg 69%
    23:00 +19°C° 0 mm 1 m/s 743 mmHg 72%

    21 Julho, Sábado

    Tempo Temperatura Precipitação Vento Pressão Humidade
    00:00 +18°C° 0 mm 1 m/s 743 mmHg 75%
    01:00 +18°C° 0 mm 1 m/s 743 mmHg 78%
    02:00 +18°C° 0 mm 1 m/s 742 mmHg 79%
    03:00 +16°C° 0 mm 1 m/s 742 mmHg 80%
    04:00 +16°C° 0 mm 1 m/s 742 mmHg 81%
    05:00 +19°C° 0 mm 1 m/s 742 mmHg 77%
    06:00 +20°C° 0 mm 1 m/s 742 mmHg 73%
    07:00 +22°C° 0 mm 1 m/s 742 mmHg 68%
    08:00 +24°C° 0 mm 1 m/s 742 mmHg 62%
    09:00 +25°C° 0 mm 2 m/s 742 mmHg 56%
    10:00 +27°C° 0 mm 2 m/s 742 mmHg 49%
    11:00 +27°C° 0 mm 2 m/s 742 mmHg 47%
    12:00 +28°C° 0 mm 2 m/s 741 mmHg 45%
    13:00 +29°C° 0 mm 1 m/s 741 mmHg 42%
    14:00 +29°C° 0 mm 1 m/s 741 mmHg 44%
    15:00 +28°C° 0 mm 1 m/s 741 mmHg 45%
    16:00 +28°C° 0 mm 1 m/s 741 mmHg 47%
    17:00 +27°C° 0 mm 1 m/s 741 mmHg 52%
    18:00 +26°C° 0 mm 2 m/s 741 mmHg 58%
    19:00 +25°C° 0 mm 2 m/s 741 mmHg 64%
    20:00 +23°C° 0 mm 2 m/s 741 mmHg 67%
    21:00 +21°C° 0 mm 2 m/s 741 mmHg 70%
    22:00 +20°C° 0 mm 2 m/s 741 mmHg 74%
    23:00 +19°C° 0 mm 2 m/s 741 mmHg 75%

    22 Julho, Domingo

    Tempo Temperatura Precipitação Vento Pressão Humidade
    00:00 +19°C° 0 mm 2 m/s 741 mmHg 77%
    01:00 +18°C° 0 mm 2 m/s 741 mmHg 78%
    02:00 +19°C° 0 mm 1 m/s 741 mmHg 79%
    03:00 +18°C° 0 mm 1 m/s 741 mmHg 80%
    04:00 +18°C° 0 mm 1 m/s 741 mmHg 81%
    05:00 +19°C° 0 mm 1 m/s 741 mmHg 77%
    06:00 +20°C° 0 mm 1 m/s 741 mmHg 73%
    07:00 +21°C° 0 mm 2 m/s 741 mmHg 69%
    08:00 +23°C° 0 mm 2 m/s 741 mmHg 64%
    09:00 +24°C° 0 mm 2 m/s 742 mmHg 59%
    10:00 +25°C° 0 mm 2 m/s 742 mmHg 54%
    11:00 +26°C° 0,1 mm 2 m/s 742 mmHg 51%
    12:00 +27°C° 0,1 mm 3 m/s 741 mmHg 48%
    13:00 +27°C° 0,1 mm 3 m/s 741 mmHg 45%
    14:00 +27°C° 0 mm 3 m/s 741 mmHg 44%
    15:00 +27°C° 0 mm 4 m/s 741 mmHg 42%
    16:00 +27°C° 0 mm 4 m/s 741 mmHg 41%
    17:00 +26°C° 0 mm 3 m/s 742 mmHg 47%
    18:00 +25°C° 0 mm 3 m/s 742 mmHg 54%
    19:00 +24°C° 0 mm 2 m/s 742 mmHg 60%
    20:00 +21°C° 0 mm 2 m/s 742 mmHg 63%
    21:00 +21°C° 0 mm 1 m/s 743 mmHg 67%
    22:00 +20°C° 0 mm 1 m/s 743 mmHg 71%
    23:00 +19°C° 0 mm 1 m/s 743 mmHg 73%

    23 Julho, Segunda-feira

    Tempo Temperatura Precipitação Vento Pressão Humidade
    00:00 +19°C° 0 mm 1 m/s 743 mmHg 76%
    01:00 +18°C° 0 mm 1 m/s 744 mmHg 79%
    02:00 +18°C° 0 mm 1 m/s 744 mmHg 82%
    03:00 +16°C° 0 mm 1 m/s 744 mmHg 85%
    04:00 +16°C° 0 mm 1 m/s 744 mmHg 87%
    05:00 +18°C° 0 mm 1 m/s 744 mmHg 82%
    06:00 +20°C° 0 mm 1 m/s 745 mmHg 76%
    07:00 +21°C° 0 mm 1 m/s 745 mmHg 71%
    08:00 +23°C° 0 mm 2 m/s 745 mmHg 65%
    09:00 +24°C° 0 mm 2 m/s 745 mmHg 59%
    10:00 +25°C° 0 mm 2 m/s 745 mmHg 54%
    11:00 +26°C° 0 mm 3 m/s 745 mmHg 52%
    12:00 +26°C° 0 mm 3 m/s 745 mmHg 49%
    13:00 +27°C° 0 mm 3 m/s 745 mmHg 47%
    14:00 +27°C° 0 mm 3 m/s 744 mmHg 48%
    15:00 +27°C° 0 mm 3 m/s 744 mmHg 48%
    16:00 +27°C° 0 mm 3 m/s 744 mmHg 48%
    17:00 +26°C° 0 mm 3 m/s 744 mmHg 52%
    18:00 +25°C° 0 mm 2 m/s 744 mmHg 57%
    19:00 +24°C° 0 mm 1 m/s 744 mmHg 61%
    20:00 +22°C° 0 mm 1 m/s 745 mmHg 65%
    21:00 +21°C° 0 mm 1 m/s 745 mmHg 69%
    22:00 +18°C° 0 mm 2 m/s 745 mmHg 73%
    23:00 +19°C° 0 mm 1 m/s 745 mmHg 77%
    Mostrar mais